Temperature
3 2 1 0 -1 -1 -1 -1 -1 -1 -2 -2 -3 -3 -3 -4 -5 -6 -7 -7 -8 -8 -9 -9 -9 -10 -10 -10 -10 -10 -10 -9 -9 -8 -6 -4 -4 -4 -5 -4 -3 -3 -2
3 2 1 -0 -1 -1 -1 -1 -2 -2 -3 -3 -4 -5 -5 -5 -6 -7 -7 -8 -8 -9 -9 -10 -10 -11 -11 -11 -11 -11 -11 -11 -11 -12 -11 -10 -8 -6 -5 -4 -5 -5 -3
3 1 0 -1 -1 -1 -1 -2 -2 -3 -3 -4 -5 -5 -5 -6 -7 -8 -8 -9 -9 -10 -10 -11 -11 -12 -12 -12 -12 -12 -12 -13 -12 -12 -13 -11 -10 -10 -8 -7 -7 -6 -5
2 1 -0 -1 -1 -1 -2 -2 -3 -3 -4 -5 -5 -6 -7 -8 -8 -9 -9 -9 -10 -10 -11 -12 -12 -13 -13 -13 -13 -14 -13 -13 -13 -13 -12 -12 -11 -11 -10 -9 -8 -7 -6
1 1 -0 -1 -1 -2 -2 -3 -3 -4 -5 -5 -6 -7 -8 -9 -9 -9 -9 -10 -10 -11 -12 -12 -13 -13 -14 -14 -14 -14 -14 -14 -14 -13 -13 -12 -12 -11 -10 -10 -9 -8 -7
1 1 -0 -1 -2 -2 -2 -3 -3 -4 -5 -6 -7 -8 -9 -9 -9 -9 -10 -11 -12 -12 -13 -13 -14 -14 -14 -14 -14 -14 -14 -14 -14 -13 -13 -13 -12 -11 -11 -10 -10 -9 -8
1 0 -0 -1 -2 -2 -2 -3 -4 -5 -5 -6 -7 -8 -8 -9 -9 -10 -11 -12 -13 -13 -13 -14 -14 -14 -14 -14 -14 -14 -14 -14 -14 -13 -13 -12 -12 -11 -10 -10 -10 -9 -8
1 0 -1 -2 -2 -2 -3 -4 -4 -5 -6 -7 -7 -8 -8 -9 -10 -11 -12 -13 -13 -13 -13 -13 -13 -14 -14 -14 -14 -14 -14 -14 -14 -13 -12 -12 -11 -10 -10 -10 -9 -9 -8
0 -1 -1 -2 -2 -3 -4 -4 -5 -5 -6 -7 -7 -7 -8 -9 -11 -12 -13 -13 -13 -13 -13 -13 -13 -13 -13 -13 -14 -14 -14 -13 -13 -12 -11 -11 -10 -10 -9 -9 -9 -9 -8
-0 -1 -1 -2 -2 -4 -4 -5 -5 -6 -6 -7 -7 -8 -9 -10 -11 -12 -13 -13 -13 -13 -13 -12 -13 -13 -13 -13 -13 -13 -13 -13 -12 -11 -11 -10 -10 -9 -9 -8 -8 -8 -8
-0 -1 -1 -2 -3 -4 -5 -5 -5 -6 -6 -7 -7 -8 -9 -10 -12 -12 -13 -13 -13 -13 -12 -12 -12 -12 -12 -12 -12 -12 -12 -12 -11 -11 -10 -10 -9 -9 -9 -9 -8 -8 -8
-1 -1 -1 -2 -3 -4 -5 -5 -6 -6 -6 -7 -8 -9 -10 -11 -12 -12 -13 -13 -13 -12 -12 -12 -12 -12 -12 -11 -11 -11 -11 -11 -11 -10 -10 -10 -10 -9 -9 -9 -9 -9 -8
-1 -1 -2 -3 -4 -4 -5 -5 -6 -6 -6 -7 -8 -9 -10 -11 -12 -12 -13 -13 -13 -12 -12 -11 -11 -11 -11 -11 -11 -11 -11 -11 -10 -10 -10 -10 -10 -10 -9 -9 -9 -9 -9
-1 -1 -2 -3 -4 -4 -5 -5 -6 -6 -6 -7 -8 -9 -10 -11 -12 -12 -13 -13 -13 -13 -12 -12 -11 -11 -11 -11 -11 -11 -11 -11 -11 -10 -10 -10 -10 -10 -10 -10 -10 -10 -10
-1 -1 -2 -3 -4 -4 -5 -5 -5 -6 -6 -7 -8 -9 -10 -11 -12 -12 -13 -13 -13 -13 -13 -12 -11 -11 -10 -10 -11 -11 -11 -11 -11 -11 -11 -10 -11 -10 -10 -11 -10 -10 -10
-1 -2 -3 -3 -4 -4 -4 -5 -5 -6 -6 -7 -8 -9 -9 -10 -11 -12 -13 -13 -13 -13 -13 -12 -12 -11 -10 -10 -11 -12 -12 -12 -12 -12 -11 -11 -11 -11 -11 -11 -11 -11 -10
-1 -2 -2 -3 -3 -4 -4 -5 -5 -6 -6 -7 -8 -9 -9 -10 -11 -12 -13 -13 -13 -13 -13 -13 -12 -11 -11 -11 -12 -13 -12 -12 -13 -13 -12 -12 -12 -11 -11 -11 -11 -11 -11
-1 -2 -2 -3 -3 -4 -4 -5 -6 -6 -6 -7 -8 -8 -9 -10 -11 -12 -13 -13 -13 -13 -13 -13 -13 -12 -11 -11 -12 -12 -12 -13 -13 -13 -13 -13 -12 -12 -11 -11 -11 -11 -11
-1 -2 -2 -3 -3 -4 -4 -5 -5 -6 -6 -7 -8 -8 -9 -10 -10 -11 -12 -13 -13 -13 -13 -13 -13 -13 -12 -12 -11 -12 -12 -13 -13 -13 -13 -13 -13 -12 -12 -12 -12 -12 -11
-1 -2 -2 -3 -3 -4 -4 -5 -5 -6 -6 -7 -8 -8 -9 -9 -10 -11 -12 -12 -13 -13 -13 -13 -13 -13 -13 -12 -12 -12 -13 -13 -13 -14 -14 -14 -13 -13 -13 -13 -13 -12 -12
-1 -2 -2 -2 -3 -4 -4 -5 -5 -6 -6 -7 -7 -8 -9 -9 -10 -10 -11 -12 -12 -12 -13 -13 -13 -13 -13 -13 -12 -12 -13 -13 -14 -14 -15 -14 -14 -14 -14 -13 -13 -13 -12
-1 -2 -2 -2 -3 -3 -4 -5 -5 -6 -6 -7 -7 -8 -9 -9 -10 -10 -10 -11 -11 -12 -12 -12 -12 -13 -13 -13 -13 -12 -13 -13 -14 -14 -15 -14 -14 -14 -14 -14 -13 -12 -11
-1 -1 -2 -2 -3 -3 -4 -4 -5 -6 -6 -6 -7 -8 -8 -9 -10 -10 -10 -10 -11 -11 -12 -12 -12 -12 -12 -12 -12 -12 -13 -13 -14 -14 -14 -15 -15 -14 -14 -14 -13 -12 -12
-1 -1 -2 -2 -3 -3 -4 -4 -5 -5 -6 -6 -7 -7 -8 -8 -9 -10 -10 -10 -10 -11 -11 -12 -12 -12 -12 -12 -11 -12 -13 -13 -14 -14 -14 -14 -14 -14 -14 -13 -13 -13 -13
-0 -1 -2 -2 -3 -3 -4 -4 -5 -5 -6 -6 -7 -7 -8 -8 -8 -9 -10 -10 -10 -11 -11 -11 -11 -11 -11 -11 -11 -12 -12 -13 -14 -14 -13 -13 -14 -14 -14 -14 -14 -13 -13
-0 -1 -2 -2 -2 -3 -4 -4 -5 -5 -6 -6 -6 -7 -7 -7 -8 -8 -8 -9 -10 -10 -10 -11 -11 -11 -11 -11 -11 -11 -12 -13 -14 -13 -13 -14 -14 -14 -14 -14 -14 -14 -14
Wind_Speed
5 4 2 1 3 4 6 6 7 8 10 7 7 7 8 6 11 14 18 19 19 19 18 14 15 15 8 9 10 10 11 10 10 11 12 11 11 10 5 7 7 7 11
5 5 4 2 3 5 6 7 8 7 10 8 8 7 7 6 11 15 17 18 19 19 18 16 15 14 9 9 9 10 9 10 8 8 10 8 6 4 9 8 7 6 8
8 6 4 3 2 5 6 8 8 8 11 13 11 11 5 4 5 7 8 17 20 20 19 18 17 15 10 8 9 9 9 11 9 5 6 6 6 12 5 6 6 8 8
7 4 2 1 3 4 6 6 7 8 11 13 8 9 10 9 9 7 9 18 19 19 19 19 18 16 13 9 10 8 9 10 10 8 6 8 9 7 7 5 6 9 10
7 4 2 3 4 5 6 6 7 7 10 12 8 8 8 7 9 8 9 9 15 18 19 20 18 16 14 11 9 11 9 8 9 9 9 10 10 11 11 14 10 9 7
6 3 3 4 4 4 5 6 8 8 8 9 8 9 9 10 12 13 10 10 9 13 16 20 18 18 15 13 12 10 10 9 10 9 9 10 9 9 10 12 15 13 9
6 3 2 3 4 6 7 8 9 9 9 9 9 9 9 9 11 13 12 13 11 11 11 18 16 17 17 18 16 10 10 9 10 9 9 9 10 10 11 12 13 14 11
5 4 3 1 3 6 7 8 9 9 9 9 9 8 8 7 8 10 11 12 11 11 18 19 20 21 20 19 15 12 12 9 9 11 11 10 10 10 11 11 12 13 10
7 6 3 1 4 6 6 8 8 9 9 9 10 8 7 8 10 10 10 9 12 16 20 21 20 21 21 19 14 12 11 10 10 10 11 10 10 10 10 11 11 10 12
7 6 3 1 3 4 6 8 8 8 9 9 9 11 9 11 12 11 12 11 15 18 18 18 19 19 19 17 13 11 10 10 10 9 10 10 9 9 9 9 9 9 10
8 6 3 1 3 5 6 7 8 8 8 8 8 9 9 11 12 10 11 13 14 17 16 17 18 19 19 15 10 9 9 9 9 9 9 10 9 7 7 7 7 7 7
8 6 3 2 4 6 7 7 7 8 8 8 8 9 10 10 11 11 12 15 14 16 17 17 17 18 18 14 11 10 9 8 9 9 8 8 8 8 7 7 7 6 7
8 5 3 1 4 6 7 7 7 7 7 7 8 9 10 10 11 12 12 14 14 14 16 15 16 17 16 12 11 11 11 11 11 11 11 10 9 8 8 9 6 7 8
8 6 3 2 4 5 6 7 7 7 7 7 8 9 10 10 11 10 12 12 13 12 13 14 15 15 14 9 9 11 11 12 12 13 13 12 11 10 9 9 8 8 9
7 7 5 4 4 5 6 6 7 7 7 7 8 9 10 10 10 11 11 11 12 13 13 14 15 15 14 7 7 9 11 11 12 12 13 13 18 21 14 12 11 10 9
8 7 6 5 5 4 5 6 6 7 6 7 8 9 10 10 10 11 11 11 12 12 12 13 14 16 15 20 22 14 9 10 11 12 13 13 14 20 19 21 20 17 13
8 8 7 6 5 4 4 5 6 6 7 7 7 8 9 10 11 12 11 11 10 11 12 12 13 14 18 23 22 22 10 9 10 11 12 14 16 20 7 14 19 16 19
10 9 7 6 5 3 3 4 5 5 6 7 7 8 8 9 10 10 11 10 8 9 8 10 12 13 18 25 19 20 10 7 9 10 11 13 13 17 14 10 11 9 10
9 8 7 6 5 4 3 3 4 5 6 7 7 8 8 8 9 9 10 8 8 7 8 9 11 12 16 25 20 16 7 8 9 10 13 16 12 22 24 15 13 12 9
8 8 7 6 5 4 2 2 4 5 6 6 7 7 7 8 8 8 8 6 8 8 10 11 10 11 12 21 23 15 6 9 9 10 13 20 21 23 24 14 14 14 11
8 8 8 7 6 4 3 3 4 5 6 6 6 7 7 7 7 7 6 8 9 10 9 10 11 10 13 18 22 21 6 7 10 11 10 13 25 24 23 20 14 18 15
9 8 8 7 6 5 4 4 5 5 6 6 6 7 7 7 7 8 7 8 8 9 9 8 10 8 10 14 17 20 18 14 9 10 10 13 24 23 23 19 21 23 18
11 8 8 7 6 6 5 5 5 5 5 6 6 7 8 7 7 7 8 8 8 7 9 8 9 9 9 12 18 15 17 19 9 8 16 20 22 20 16 22 24 19 13
11 9 9 8 7 7 6 6 5 5 5 6 6 6 7 7 8 7 6 7 8 9 8 7 8 9 9 10 7 4 6 11 9 7 12 17 19 17 18 18 15 12 13
11 10 10 10 9 7 6 6 5 4 5 6 6 6 6 7 7 8 6 8 7 10 11 7 8 9 10 13 18 12 7 5 6 6 6 7 8 10 11 11 11 12 12
12 11 11 10 8 7 7 6 5 4 5 5 5 5 5 6 6 7 9 13 13 16 17 17 16 12 16 21 19 17 15 15 14 7 4 6 7 8 9 10 10 10 11
Wind_Direction
199 179 161 142 309 315 333 336 342 340 347 345 343 334 332 324 326 333 332 328 329 329 325 321 323 320 316 316 315 319 319 321 325 320 318 302 278 274 295 304 302 317 342
198 216 210 220 297 321 337 343 343 334 341 339 328 318 316 311 321 325 323 327 329 326 326 323 318 314 309 311 313 316 314 321 331 319 321 316 309 344 320 295 298 328 337
207 221 223 243 311 338 338 339 332 331 335 336 333 333 313 302 322 325 317 327 326 323 319 316 315 311 306 305 305 302 311 316 313 301 302 306 312 324 277 285 317 333 323
198 204 212 307 352 340 332 328 329 330 333 336 335 337 343 336 329 323 319 324 325 322 321 319 314 310 309 301 300 315 304 303 307 305 276 282 292 297 308 307 314 310 316
197 191 139 40 13 345 331 331 335 330 331 333 329 326 319 309 317 319 317 319 325 324 323 322 316 312 310 300 294 297 291 293 291 293 292 288 282 273 285 299 308 310 298
184 145 87 45 355 336 338 346 344 332 327 328 322 319 314 317 326 330 328 329 325 323 320 321 315 310 306 300 296 289 285 287 283 283 281 283 285 287 289 290 300 304 303
167 144 70 9 336 344 356 351 340 328 324 322 319 316 313 316 323 328 329 329 328 325 317 315 311 307 301 299 295 290 287 280 276 273 277 276 275 280 282 284 291 296 301
159 144 117 5 340 357 353 341 330 324 322 322 321 313 319 327 326 323 323 321 320 317 313 315 312 306 301 298 294 290 284 280 276 280 276 274 273 274 274 277 288 296 299
163 150 137 49 7 356 339 328 323 321 319 321 323 327 334 329 325 321 319 316 316 318 320 316 313 310 306 300 292 283 279 280 279 276 275 273 274 275 274 273 274 283 296
160 152 153 41 5 342 324 322 319 315 312 319 329 344 331 326 324 323 320 319 318 319 319 320 320 320 319 315 302 287 279 279 281 279 277 279 279 279 278 275 273 272 279
167 164 167 53 354 332 323 318 316 313 315 322 326 328 325 325 325 323 320 321 321 324 325 327 328 330 332 332 325 312 295 289 289 290 292 296 298 305 307 301 295 293 294
158 160 144 41 339 322 317 314 313 313 315 321 327 327 325 325 325 324 323 325 325 328 331 333 334 338 343 346 348 343 340 330 326 327 323 321 331 328 327 322 315 311 302
157 158 128 350 309 306 307 309 310 312 316 326 329 326 325 326 326 325 324 328 329 330 335 338 340 342 344 356 10 11 10 7 2 359 355 345 339 344 342 337 334 320 315
165 162 169 254 282 292 297 304 308 315 329 333 329 327 325 326 324 325 327 331 333 335 338 339 340 341 338 347 16 18 15 10 7 6 0 349 349 350 346 347 347 332 322
177 177 189 229 261 283 297 304 310 322 331 333 334 330 327 325 327 330 331 334 340 342 337 339 341 343 342 350 46 28 12 5 2 359 355 347 356 355 2 356 356 347 336
185 184 194 215 239 267 291 305 315 321 328 331 330 328 331 332 334 333 337 339 340 337 337 339 340 343 344 6 30 34 13 3 359 354 349 344 345 351 0 358 359 357 348
180 184 194 211 227 247 274 293 306 318 328 328 327 328 328 333 335 338 339 338 333 333 335 334 339 340 339 3 30 28 19 1 355 351 349 348 345 346 342 355 356 352 353
177 181 188 202 213 227 264 288 310 326 327 326 326 324 326 327 329 334 335 330 324 329 328 326 333 337 341 355 26 29 16 357 349 345 344 341 336 335 4 357 345 342 347
169 176 185 192 195 212 254 295 318 325 326 324 322 318 318 322 326 332 328 322 322 321 325 325 329 334 336 347 10 31 6 5 348 347 350 346 340 347 4 3 348 346 353
155 167 177 182 192 205 222 268 305 313 315 313 311 310 314 320 317 320 318 317 320 323 333 330 327 324 324 339 354 21 18 8 359 352 349 347 356 359 2 5 353 352 357
157 166 175 188 196 194 196 243 281 289 295 303 308 312 316 314 311 318 314 319 326 327 323 322 321 316 325 335 340 358 21 16 3 356 348 346 360 4 3 7 1 359 2
161 169 179 195 198 190 190 235 264 277 296 305 311 313 312 314 322 319 312 314 317 318 314 312 318 321 319 327 331 349 360 12 12 355 345 354 5 8 7 8 8 7 4
172 176 184 192 201 197 195 228 255 285 303 309 311 310 310 310 310 306 304 311 310 311 311 312 320 322 320 321 328 342 355 2 13 1 1 7 10 10 6 8 12 8 2
179 180 184 195 206 204 207 224 256 282 295 300 303 306 308 310 312 313 308 307 307 308 307 314 319 317 315 313 317 311 337 358 6 6 1 7 8 12 10 9 8 5 4
180 185 193 202 205 201 213 227 241 265 284 293 295 304 310 307 310 314 306 308 301 317 336 329 318 322 320 324 345 356 354 351 3 14 2 359 1 5 5 5 7 6 5
179 188 197 203 202 199 213 224 229 240 265 287 297 300 303 310 315 315 320 327 335 336 342 344 344 333 333 342 352 353 359 357 2 14 354 355 357 359 360 1 0 2 5
Height
1609 1608 1607 1604 1600 1597 1593 1589 1584 1578 1572 1566 1559 1553 1547 1542 1537 1532 1527 1521 1515 1509 1503 1498 1493 1488 1483 1479 1474 1470 1464 1460 1455 1448 1440 1436 1435 1433 1432 1431 1430 1428 1426
1606 1606 1604 1602 1598 1595 1591 1587 1582 1576 1570 1564 1557 1551 1545 1539 1533 1528 1523 1517 1511 1505 1499 1494 1488 1484 1479 1474 1470 1466 1461 1457 1454 1449 1441 1434 1429 1429 1427 1426 1425 1424 1422
1604 1604 1602 1600 1596 1593 1588 1584 1579 1574 1568 1561 1554 1548 1541 1534 1528 1521 1516 1512 1506 1501 1495 1489 1484 1479 1474 1469 1465 1462 1458 1453 1450 1449 1446 1441 1433 1425 1419 1421 1421 1419 1417
1601 1601 1599 1597 1594 1590 1586 1582 1578 1572 1566 1559 1552 1544 1537 1530 1524 1518 1512 1507 1502 1496 1490 1484 1479 1474 1469 1464 1461 1457 1454 1449 1445 1443 1442 1441 1437 1432 1420 1416 1416 1415 1413
1599 1598 1597 1594 1591 1588 1584 1580 1576 1570 1563 1556 1550 1543 1536 1529 1522 1515 1509 1502 1497 1491 1486 1480 1474 1469 1464 1459 1455 1451 1448 1445 1441 1438 1436 1435 1433 1430 1426 1415 1410 1410 1409
1596 1595 1594 1592 1589 1586 1583 1578 1573 1567 1560 1554 1547 1541 1533 1526 1519 1512 1505 1498 1492 1487 1482 1476 1470 1465 1459 1454 1449 1445 1442 1439 1436 1433 1431 1430 1429 1426 1423 1417 1410 1407 1404
1593 1593 1592 1589 1587 1584 1580 1575 1569 1563 1558 1551 1545 1538 1531 1524 1517 1510 1503 1496 1489 1483 1477 1472 1466 1460 1454 1448 1443 1439 1435 1432 1430 1427 1425 1424 1423 1422 1419 1415 1409 1405 1401
1590 1590 1589 1587 1585 1582 1577 1572 1566 1561 1555 1548 1542 1536 1529 1523 1516 1510 1503 1496 1489 1482 1476 1469 1462 1455 1448 1442 1436 1432 1429 1426 1424 1422 1421 1419 1418 1416 1414 1412 1408 1403 1398
1587 1587 1586 1584 1582 1579 1574 1569 1564 1559 1553 1546 1540 1534 1527 1521 1515 1508 1502 1496 1489 1482 1475 1467 1458 1449 1442 1435 1429 1425 1422 1420 1419 1417 1416 1415 1414 1412 1410 1407 1405 1403 1397
1583 1584 1583 1582 1580 1576 1572 1567 1562 1557 1551 1545 1538 1532 1526 1520 1513 1507 1501 1494 1488 1481 1473 1464 1455 1446 1438 1430 1424 1420 1418 1417 1415 1414 1413 1412 1410 1408 1405 1403 1401 1399 1396
1580 1581 1580 1579 1577 1573 1569 1565 1560 1555 1549 1543 1537 1531 1524 1518 1512 1506 1499 1493 1487 1480 1472 1464 1455 1446 1438 1430 1424 1420 1417 1416 1414 1413 1412 1410 1408 1406 1403 1400 1397 1395 1392
1577 1577 1577 1576 1574 1570 1567 1563 1558 1553 1547 1541 1535 1530 1523 1517 1510 1504 1498 1492 1486 1479 1472 1465 1457 1449 1442 1435 1429 1424 1421 1418 1415 1413 1412 1410 1408 1405 1401 1398 1395 1392 1389
1573 1574 1574 1573 1570 1567 1564 1561 1556 1551 1546 1540 1534 1528 1522 1515 1509 1503 1498 1491 1485 1478 1472 1466 1459 1452 1446 1440 1435 1430 1426 1422 1419 1416 1413 1411 1408 1404 1400 1396 1393 1388 1385
1570 1570 1570 1569 1567 1565 1562 1559 1555 1550 1544 1539 1533 1527 1521 1515 1509 1503 1497 1491 1484 1478 1472 1467 1461 1455 1449 1444 1439 1435 1430 1426 1422 1419 1415 1412 1408 1405 1400 1396 1391 1386 1382
1566 1567 1567 1566 1564 1562 1560 1557 1553 1548 1543 1538 1532 1527 1521 1515 1509 1503 1497 1491 1485 1479 1473 1468 1462 1457 1451 1447 1442 1436 1432 1428 1424 1420 1416 1412 1409 1405 1401 1396 1390 1385 1381
1563 1564 1563 1562 1561 1560 1558 1555 1551 1546 1542 1537 1532 1526 1520 1514 1509 1503 1497 1491 1485 1480 1475 1469 1463 1458 1453 1450 1445 1438 1433 1428 1424 1419 1415 1411 1407 1404 1399 1394 1389 1384 1380
1559 1560 1560 1559 1558 1557 1555 1552 1549 1545 1541 1536 1531 1526 1520 1514 1509 1503 1498 1492 1486 1481 1476 1471 1465 1460 1455 1451 1446 1440 1434 1429 1424 1420 1415 1411 1407 1402 1397 1392 1387 1382 1377
1555 1556 1556 1556 1555 1554 1553 1550 1548 1544 1540 1535 1531 1525 1520 1515 1509 1504 1498 1493 1487 1482 1477 1472 1467 1462 1456 1452 1447 1441 1436 1431 1426 1421 1416 1412 1407 1402 1397 1390 1385 1380 1376
1551 1552 1553 1553 1552 1551 1550 1548 1546 1543 1539 1534 1530 1525 1520 1515 1509 1504 1499 1494 1488 1483 1479 1474 1469 1463 1457 1453 1448 1442 1437 1432 1427 1421 1416 1412 1408 1402 1397 1389 1384 1379 1375
1547 1548 1549 1550 1549 1548 1547 1546 1544 1541 1537 1533 1529 1525 1521 1516 1510 1504 1499 1494 1489 1484 1479 1474 1470 1464 1459 1453 1449 1444 1438 1433 1427 1422 1417 1412 1408 1402 1397 1390 1384 1379 1374
1543 1545 1546 1546 1546 1545 1545 1544 1542 1539 1536 1532 1528 1525 1521 1516 1511 1506 1500 1495 1490 1485 1480 1475 1470 1465 1459 1454 1450 1446 1440 1434 1429 1423 1418 1413 1409 1402 1397 1392 1386 1382 1375
1539 1541 1543 1543 1543 1543 1542 1541 1540 1538 1534 1531 1528 1524 1520 1516 1511 1506 1501 1496 1490 1484 1479 1473 1468 1464 1459 1454 1449 1446 1442 1437 1431 1425 1420 1415 1410 1404 1398 1393 1388 1381 1376
1536 1538 1540 1540 1540 1540 1539 1539 1538 1536 1533 1530 1527 1524 1520 1516 1511 1506 1501 1496 1490 1484 1478 1473 1467 1463 1458 1453 1449 1445 1442 1438 1432 1427 1423 1418 1412 1405 1399 1395 1389 1383 1377
1533 1535 1536 1536 1537 1537 1536 1536 1535 1534 1532 1529 1526 1523 1519 1515 1511 1506 1501 1495 1489 1483 1479 1474 1468 1462 1457 1452 1448 1444 1440 1437 1433 1428 1424 1419 1414 1409 1403 1398 1392 1387 1382
1529 1531 1532 1533 1533 1533 1533 1533 1533 1532 1530 1528 1525 1522 1518 1514 1510 1506 1501 1495 1490 1486 1482 1476 1470 1464 1457 1454 1451 1446 1441 1438 1434 1429 1425 1420 1415 1410 1406 1401 1397 1392 1386
1524 1527 1528 1529 1529 1530 1530 1530 1530 1529 1528 1526 1524 1521 1517 1513 1509 1504 1501 1497 1492 1487 1482 1477 1472 1467 1462 1456 1451 1446 1441 1438 1434 1430 1426 1422 1418 1414 1410 1406 1401 1397 1392